DLH789T LKPR-LKPR

Flight info

Callsign DLH789T
Flight time 0h 39m
Altitude 5000
Route LKPR
Aircraft B789/H-SDE1E2E3FGHIJ2J3J4J5M1RWXY/LB1D1

Departure

Time 2026-05-07 20:24
Airport Václav Havel Airport Prague (LKPR)

Arrival

Time 2026-05-07 21:04
Airport Václav Havel Airport Prague (LKPR)
Time Latitude Longitude Altitude Speed Heading
2026-05-07 20:04 50.11100 14.26932 1181 ft 0 kts 245°
2026-05-07 20:13 50.11101 14.26936 1178 ft 2 kts 245°
2026-05-07 20:13 50.11108 14.26959 1176 ft 2 kts 245°
2026-05-07 20:13 50.11115 14.26982 1181 ft 2 kts 245°
2026-05-07 20:14 50.11121 14.27005 1182 ft 2 kts 245°
2026-05-07 20:14 50.11128 14.27028 1183 ft 2 kts 245°
2026-05-07 20:14 50.11135 14.27051 1182 ft 2 kts 245°
2026-05-07 20:14 50.11142 14.27074 1180 ft 2 kts 245°
2026-05-07 20:15 50.11143 14.27077 1181 ft 0 kts 245°
2026-05-07 20:18 50.11141 14.27069 1180 ft 2 kts 250°
2026-05-07 20:19 50.11141 14.27048 1179 ft 4 kts 276°
2026-05-07 20:19 50.11172 14.26996 1182 ft 10 kts 332°
2026-05-07 20:19 50.11264 14.26942 1175 ft 15 kts
2026-05-07 20:19 50.11302 14.26967 1175 ft 1 kts 54°
2026-05-07 20:20 50.11324 14.27059 1172 ft 20 kts 68°
2026-05-07 20:20 50.11374 14.27249 1170 ft 18 kts 66°
2026-05-07 20:20 50.11426 14.27411 1169 ft 16 kts 63°
2026-05-07 20:20 50.11437 14.27439 1171 ft 1 kts 47°
2026-05-07 20:21 50.11457 14.27450 1172 ft 3 kts
2026-05-07 20:21 50.11487 14.27420 1172 ft 0 kts 321°
2026-05-07 20:23 50.11488 14.27418 1173 ft 1 kts 320°
2026-05-07 20:23 50.11516 14.27374 1168 ft 10 kts 313°
2026-05-07 20:23 50.11556 14.27240 1168 ft 19 kts 268°
2026-05-07 20:23 50.11458 14.26880 1167 ft 71 kts 244°
2026-05-07 20:24 50.11119 14.25746 1171 ft 157 kts 245°
2026-05-07 20:24 50.10580 14.23961 1686 ft 181 kts 242°
2026-05-07 20:24 50.10097 14.22355 2257 ft 162 kts 249°
2026-05-07 20:24 50.09605 14.20682 2906 ft 179 kts 246°
2026-05-07 20:25 50.08987 14.18864 3596 ft 203 kts 244°
2026-05-07 20:25 50.08304 14.16794 4269 ft 229 kts 244°
2026-05-07 20:25 50.07550 14.14445 4930 ft 252 kts 245°
2026-05-07 20:25 50.06892 14.11872 5022 ft 261 kts 263°
2026-05-07 20:26 50.07227 14.09127 5062 ft 261 kts 299°
2026-05-07 20:26 50.08534 14.07231 5061 ft 265 kts 334°
2026-05-07 20:26 50.10361 14.06872 5049 ft 270 kts
2026-05-07 20:26 50.11991 14.08217 5020 ft 272 kts 45°
2026-05-07 20:27 50.12942 14.10796 5017 ft 275 kts 69°
2026-05-07 20:27 50.13466 14.13632 5007 ft 275 kts 83°
2026-05-07 20:27 50.13423 14.16621 5017 ft 276 kts 95°
2026-05-07 20:27 50.13315 14.19603 5018 ft 273 kts 91°
2026-05-07 20:28 50.13374 14.22431 4996 ft 255 kts 85°
2026-05-07 20:28 50.13507 14.25157 4992 ft 248 kts 86°
2026-05-07 20:28 50.13604 14.27792 5000 ft 245 kts 86°
2026-05-07 20:28 50.13680 14.30451 5001 ft 245 kts 87°
2026-05-07 20:29 50.13755 14.33090 4997 ft 244 kts 86°
2026-05-07 20:29 50.13838 14.35770 4997 ft 247 kts 87°
2026-05-07 20:29 50.13894 14.38401 4994 ft 245 kts 92°
2026-05-07 20:29 50.13320 14.40854 4992 ft 244 kts 124°
2026-05-07 20:30 50.12321 14.43025 5003 ft 247 kts 128°
2026-05-07 20:30 50.11277 14.45092 5007 ft 245 kts 129°
2026-05-07 20:30 50.10241 14.47180 5022 ft 241 kts 128°
2026-05-07 20:30 50.09224 14.49281 5022 ft 243 kts 128°
2026-05-07 20:31 50.08226 14.51347 5016 ft 233 kts 128°
2026-05-07 20:31 50.07268 14.53334 5016 ft 226 kts 127°
2026-05-07 20:31 50.06370 14.55335 5016 ft 224 kts 126°
2026-05-07 20:31 50.05498 14.57312 5012 ft 223 kts 126°
2026-05-07 20:32 50.04611 14.59322 5016 ft 224 kts 126°
2026-05-07 20:32 50.03723 14.61334 5011 ft 224 kts 126°
2026-05-07 20:32 50.02848 14.63313 5012 ft 224 kts 126°
2026-05-07 20:32 50.01967 14.65306 5009 ft 223 kts 126°
2026-05-07 20:33 50.01097 14.67286 5009 ft 223 kts 126°
2026-05-07 20:33 50.00221 14.69291 5004 ft 224 kts 126°
2026-05-07 20:33 49.99337 14.71308 5003 ft 224 kts 126°
2026-05-07 20:33 49.98466 14.73280 4999 ft 220 kts 126°
2026-05-07 20:34 49.97639 14.75159 4951 ft 208 kts 126°
2026-05-07 20:34 49.96774 14.76992 4592 ft 206 kts 135°
2026-05-07 20:34 49.95521 14.77817 4133 ft 198 kts 181°
2026-05-07 20:34 49.94285 14.77135 3965 ft 182 kts 214°
2026-05-07 20:35 49.93201 14.76076 3999 ft 186 kts 215°
2026-05-07 20:35 49.92123 14.75028 3989 ft 184 kts 215°
2026-05-07 20:35 49.91308 14.73551 3922 ft 180 kts 255°
2026-05-07 20:35 49.91298 14.71652 3986 ft 178 kts 275°
2026-05-07 20:36 49.91411 14.69710 3996 ft 181 kts 275°
2026-05-07 20:36 49.91512 14.67783 3995 ft 181 kts 275°
2026-05-07 20:36 49.91626 14.65838 3998 ft 180 kts 278°
2026-05-07 20:36 49.92002 14.63975 3989 ft 180 kts 288°
2026-05-07 20:37 49.92537 14.62334 3968 ft 163 kts 303°
2026-05-07 20:37 49.93178 14.60918 3984 ft 161 kts 304°
2026-05-07 20:37 49.93838 14.59533 3988 ft 160 kts 305°
2026-05-07 20:37 49.94282 14.58615 3988 ft 160 kts 306°
2026-05-07 20:38 49.94947 14.57243 3981 ft 154 kts 306°
2026-05-07 20:38 49.95563 14.55976 3989 ft 143 kts 305°
2026-05-07 20:38 49.96165 14.54731 3990 ft 147 kts 306°
2026-05-07 20:38 49.96780 14.53460 3991 ft 145 kts 306°
2026-05-07 20:39 49.97383 14.52215 4007 ft 146 kts 306°
2026-05-07 20:39 49.97998 14.50940 4010 ft 147 kts 305°
2026-05-07 20:39 49.98614 14.49668 4010 ft 147 kts 306°
2026-05-07 20:39 49.99241 14.48388 4008 ft 150 kts 306°
2026-05-07 20:40 49.99869 14.47092 4014 ft 150 kts 306°
2026-05-07 20:40 50.00490 14.45808 4012 ft 148 kts 306°
2026-05-07 20:40 50.01103 14.44545 3896 ft 144 kts 306°
2026-05-07 20:40 50.01695 14.43331 3703 ft 139 kts 306°
2026-05-07 20:41 50.02272 14.42134 3524 ft 138 kts 307°
2026-05-07 20:41 50.02853 14.40949 3343 ft 138 kts 308°
2026-05-07 20:41 50.03433 14.39746 3136 ft 136 kts 307°
2026-05-07 20:41 50.04005 14.38569 2969 ft 139 kts 309°
2026-05-07 20:42 50.04569 14.37409 2800 ft 136 kts 310°
2026-05-07 20:42 50.05152 14.36205 2583 ft 138 kts 309°
2026-05-07 20:42 50.05725 14.35017 2408 ft 139 kts 309°
2026-05-07 20:42 50.06300 14.33828 2204 ft 138 kts 309°
2026-05-07 20:43 50.06871 14.32640 2019 ft 134 kts 310°
2026-05-07 20:43 50.07437 14.31500 1825 ft 136 kts 309°
2026-05-07 20:43 50.08004 14.30307 1638 ft 138 kts 309°
2026-05-07 20:43 50.08581 14.29114 1440 ft 138 kts 308°
2026-05-07 20:44 50.09148 14.27930 1268 ft 127 kts 310°
2026-05-07 20:44 50.09655 14.26914 1218 ft 132 kts 308°
2026-05-07 20:44 50.10310 14.25572 1380 ft 168 kts 309°
2026-05-07 20:44 50.11014 14.24050 2255 ft 170 kts 308°
2026-05-07 20:45 50.11799 14.22642 2826 ft 181 kts 314°
2026-05-07 20:45 50.12641 14.21226 3639 ft 174 kts 313°
2026-05-07 20:45 50.13380 14.19787 4492 ft 170 kts 305°
2026-05-07 20:45 50.14110 14.18171 5006 ft 201 kts 304°
2026-05-07 20:46 50.14992 14.16277 5021 ft 219 kts 305°
2026-05-07 20:46 50.15892 14.14349 5017 ft 225 kts 305°
2026-05-07 20:46 50.16814 14.12370 5011 ft 228 kts 305°
2026-05-07 20:46 50.17829 14.10473 5000 ft 230 kts 319°
2026-05-07 20:47 50.19352 14.09720 4986 ft 234 kts
2026-05-07 20:47 50.20836 14.10656 4988 ft 239 kts 39°
2026-05-07 20:47 50.21654 14.12913 4987 ft 242 kts 78°
2026-05-07 20:47 50.21440 14.15478 4992 ft 242 kts 111°
2026-05-07 20:48 50.20750 14.17859 5011 ft 243 kts 116°
2026-05-07 20:48 50.19958 14.20306 5010 ft 266 kts 117°
2026-05-07 20:48 50.19122 14.22932 4994 ft 272 kts 116°
2026-05-07 20:48 50.18300 14.25599 4994 ft 276 kts 116°
2026-05-07 20:49 50.17466 14.28300 5001 ft 276 kts 116°
2026-05-07 20:49 50.16623 14.31006 4784 ft 282 kts 116°
2026-05-07 20:49 50.15768 14.33728 4309 ft 277 kts 116°
2026-05-07 20:49 50.14930 14.36418 4008 ft 267 kts 115°
2026-05-07 20:50 50.14115 14.39012 4007 ft 272 kts 117°
2026-05-07 20:50 50.13008 14.41416 4004 ft 270 kts 130°
2026-05-07 20:50 50.11875 14.43749 4001 ft 272 kts 126°
2026-05-07 20:50 50.10768 14.46125 4009 ft 273 kts 127°
2026-05-07 20:51 50.09617 14.48511 4013 ft 274 kts 128°
2026-05-07 20:51 50.08474 14.50832 4012 ft 272 kts 128°
2026-05-07 20:51 50.07327 14.53183 4012 ft 271 kts 128°
2026-05-07 20:51 50.06190 14.55516 4012 ft 272 kts 128°
2026-05-07 20:52 50.05083 14.57934 3998 ft 270 kts 118°
2026-05-07 20:52 50.04668 14.60634 3991 ft 252 kts 90°
2026-05-07 20:52 50.05037 14.63255 3985 ft 242 kts 63°
2026-05-07 20:52 50.06035 14.65274 3993 ft 239 kts 38°
2026-05-07 20:53 50.07477 14.66462 3996 ft 239 kts 13°
2026-05-07 20:53 50.09195 14.66594 4021 ft 254 kts 347°
2026-05-07 20:53 50.10789 14.65531 4016 ft 254 kts 322°
2026-05-07 20:53 50.11994 14.63492 4016 ft 255 kts 307°
2026-05-07 20:54 50.13065 14.61292 4019 ft 255 kts 307°
2026-05-07 20:54 50.14118 14.59087 4010 ft 253 kts 306°
2026-05-07 20:54 50.15174 14.56902 4016 ft 254 kts 307°
2026-05-07 20:54 50.16120 14.54594 3992 ft 255 kts 288°
2026-05-07 20:55 50.16159 14.51825 4013 ft 257 kts 259°
2026-05-07 20:55 50.15432 14.49314 4011 ft 260 kts 234°
2026-05-07 20:55 50.14059 14.47490 4006 ft 264 kts 208°
2026-05-07 20:55 50.12273 14.46789 4006 ft 267 kts 181°
2026-05-07 20:56 50.10488 14.47407 4005 ft 271 kts 154°
2026-05-07 20:56 50.09038 14.49266 4020 ft 271 kts 128°
2026-05-07 20:56 50.07913 14.51622 4011 ft 272 kts 127°
2026-05-07 20:56 50.06807 14.53998 4018 ft 272 kts 127°
2026-05-07 20:57 50.05682 14.56367 4015 ft 273 kts 127°
2026-05-07 20:57 50.04543 14.58730 4014 ft 270 kts 127°
2026-05-07 20:57 50.03413 14.61035 4010 ft 269 kts 131°
2026-05-07 20:57 50.01921 14.62485 3987 ft 243 kts 171°
2026-05-07 20:58 50.00270 14.62460 3992 ft 237 kts 193°
2026-05-07 20:58 49.98804 14.61493 3991 ft 228 kts 216°
2026-05-07 20:58 49.97690 14.59737 3990 ft 225 kts 239°
2026-05-07 20:58 49.97116 14.57542 4018 ft 221 kts 259°
2026-05-07 20:59 49.97120 14.55176 4012 ft 219 kts 281°
2026-05-07 20:59 49.97626 14.52954 4018 ft 220 kts 291°
2026-05-07 20:59 49.98223 14.50734 4011 ft 223 kts 297°
2026-05-07 20:59 49.99073 14.48753 4017 ft 221 kts 306°
2026-05-07 21:00 49.99998 14.46836 4012 ft 223 kts 306°
2026-05-07 21:00 50.00937 14.44893 3928 ft 226 kts 306°
2026-05-07 21:00 50.01831 14.43041 3663 ft 203 kts 307°
2026-05-07 21:00 50.02630 14.41408 3393 ft 176 kts 307°
2026-05-07 21:01 50.03332 14.39955 3167 ft 163 kts 308°
2026-05-07 21:01 50.04008 14.38555 2949 ft 160 kts 308°
2026-05-07 21:01 50.04669 14.37203 2735 ft 157 kts 309°
2026-05-07 21:01 50.05314 14.35871 2527 ft 153 kts 309°
2026-05-07 21:02 50.05963 14.34531 2316 ft 154 kts 309°
2026-05-07 21:02 50.06594 14.33223 2099 ft 150 kts 309°
2026-05-07 21:02 50.07228 14.31916 1887 ft 150 kts 310°
2026-05-07 21:02 50.07860 14.30621 1692 ft 152 kts 309°
2026-05-07 21:03 50.08491 14.29304 1459 ft 153 kts 309°
2026-05-07 21:03 50.09121 14.27994 1266 ft 143 kts 309°
2026-05-07 21:03 50.09630 14.26956 1218 ft 95 kts 307°
2026-05-07 21:03 50.09941 14.26316 1200 ft 60 kts 307°
2026-05-07 21:04 50.10171 14.25843 1190 ft 47 kts 308°
2026-05-07 21:04 50.10381 14.25656 1188 ft 24 kts 357°
2026-05-07 21:04 50.10444 14.25662 1188 ft 1 kts
2026-05-07 21:04 50.10459 14.25666 1188 ft 3 kts
2026-05-07 21:05 50.10485 14.25678 1188 ft 5 kts 22°
2026-05-07 21:05 50.10524 14.25705 1188 ft 7 kts 27°
2026-05-07 21:05 50.10572 14.25752 1187 ft 9 kts 32°